DW9280 Weather Reports


time (UTC)temp
F
wind
direction
speed
knots
gust
knots
rain 1hr
in
rain 24hr
in
rain mn
in
humidity
%
barometer
mb
20260503021302 56 134 0.0 2.6 0.00 0.23 0.23 94 1011.4
20260503021111 56 134 0.0 2.6 0.00 0.23 0.23 94 1011.4
20260503021011 56 134 0.0 2.6 0.00 0.23 0.23 94 1011.4
20260503020303 56 134 0.0 2.6 0.00 0.23 0.23 94 1011.5
20260503020011 56 135 0.9 3.5 0.00 0.23 0.23 94 1011.4
20260503015251 56 136 0.9 3.5 0.00 0.23 0.23 94 1011.5
20260503014751 56 101 0.0 2.6 0.00 0.23 0.23 94 1011.5
20260503014350 55 100 0.0 1.7 0.00 0.23 0.23 94 1011.4
20260503014329 55 101 0.0 2.6 0.00 0.23 0.23 94 1011.4
20260503013952 55 100 0.0 1.7 0.00 0.23 0.23 94 1011.4
20260503013239 55 100 0.9 3.5 0.00 0.23 0.23 94 1011.3
20260503012843 55 84 0.9 5.2 0.00 0.23 0.23 93 1011.4
20260503012817 55 100 0.9 3.5 0.00 0.23 0.23 94 1011.2
20260503012440 55 84 0.9 5.2 0.00 0.23 0.23 93 1011.4
20260503011826 55 111 0.9 2.6 0.00 0.23 0.23 93 1011.6
20260503011803 55 96 0.0 5.2 0.00 0.23 0.23 93 1011.5
20260503011441 55 111 0.9 2.6 0.00 0.23 0.23 93 1011.6
20260503011029 55 110 0.9 2.6 0.00 0.23 0.23 93 1011.7
20260503010942 55 110 0.9 2.6 0.00 0.23 0.23 93 1011.7
20260503010231 55 111 0.9 3.5 0.00 0.23 0.23 93 1011.7
20260503010028 55 98 0.9 4.3 0.00 0.23 0.23 93 1011.7
20260503005940 55 98 0.9 4.3 0.00 0.23 0.23 93 1011.7
20260503005231 55 127 0.9 4.3 0.00 0.23 0.23 93 1011.8
20260503004732 55 94 0.9 3.5 0.00 0.23 0.23 93 1012.0
20260503004233 55 108 0.9 3.5 0.00 0.23 0.23 93 1011.9
20260503004027 55 90 0.9 2.6 0.01 0.23 0.23 93 1012.0
20260503003939 55 90 0.9 2.6 0.01 0.23 0.23 93 1012.0
20260503003529 56 117 0.9 3.5 0.01 0.23 0.23 93 1012.1
20260503003440 56 117 0.9 3.5 0.01 0.23 0.23 93 1012.1
20260503002730 56 93 0.9 5.2 0.02 0.23 0.23 93 1012.1
20260503002232 56 125 0.9 5.2 0.04 0.23 0.23 92 1012.2
20260503001731 56 52 0.9 3.5 0.06 0.23 0.23 93 1012.0
20260503001232 56 107 0.9 6.1 0.09 0.23 0.23 92 1012.2
20260503000732 56 119 0.9 6.1 0.12 0.23 0.23 92 1012.2
20260503000230 56 131 1.7 6.1 0.13 0.23 0.23 92 1012.4
20260502235729 56 104 2.6 7.8 0.16 0.23 0.23 92 1012.2
20260502235523 56 44 3.5 10.4 0.17 0.23 0.23 91 1012.1
20260502235434 56 44 3.5 10.4 0.17 0.23 0.23 91 1012.1
20260502234723 56 50 4.3 11.3 0.18 0.23 0.23 91 1012.0
20260502234520 56 19 3.5 11.3 0.21 0.23 0.23 91 1012.1
20260502234431 56 19 3.5 11.3 0.21 0.23 0.23 91 1012.1
20260502233721 56 47 2.6 7.0 0.22 0.22 0.22 90 1012.3
20260502233219 56 51 3.5 10.4 0.22 0.22 0.21 90 1012.6
20260502232718 57 28 4.3 10.4 0.20 0.20 0.20 90 1012.7
20260502232214 57 22 2.6 7.0 0.19 0.19 0.18 89 1012.8
20260502231712 58 22 1.7 6.1 0.16 0.16 0.16 89 1013.2
20260502231210 58 347 0.9 2.6 0.13 0.13 0.13 88 1013.6
20260502230709 58 283 0.0 0.9 0.11 0.11 0.10 88 1013.9
20260502230205 58 283 0.0 1.7 0.09 0.09 0.09 87 1014.0
20260502225704 58 283 0.0 1.7 0.07 0.07 0.07 86 1014.2
20260502225204 59 275 0.0 1.7 0.06 0.06 0.06 85 1014.3
20260502224703 59 275 0.0 3.5 0.05 0.05 0.05 84 1014.3
20260502224207 59 275 0.9 3.5 0.01 0.01 0.01 82 1014.5
20260502223701 59 221 0.9 7.0 0.00 0.00 0.00 82 1014.6
20260502223202 59 171 1.7 7.0 0.00 0.00 0.00 82 1015.0
20260502222702 59 263 2.6 7.8 0.00 0.00 0.00 82 1015.0
20260502222202 59 158 1.7 7.8 0.00 0.00 0.00 82 1014.9
20260502221705 59 103 1.7 4.3 0.00 0.00 0.00 81 1015.0
20260502221205 59 301 1.7 3.5 0.00 0.00 0.00 81 1013.8
20260502220704 59 344 1.7 4.3 0.00 0.00 0.00 81 1013.7
20260502220202 59 325 0.9 4.3 0.00 0.00 0.00 81 1013.8
20260502215703 59 5 0.9 3.5 0.00 0.00 0.00 81 1013.8
20260502215204 59 57 0.9 3.5 0.00 0.00 0.00 81 1013.8
20260502214704 58 59 0.9 3.5 0.00 0.00 0.00 82 1013.7
20260502214205 58 96 0.9 3.5 0.00 0.00 0.00 83 1013.7
20260502213703 58 104 0.9 6.1 0.00 0.00 0.00 84 1013.9
20260502213201 58 64 1.7 6.1 0.00 0.00 0.00 85 1013.6
20260502212702 58 91 1.7 6.1 0.00 0.00 0.00 86 1013.9
20260502212203 58 59 0.9 4.3 0.00 0.00 0.00 86 1013.4
20260502211703 58 36 0.9 3.5 0.00 0.00 0.00 86 1013.4
20260502211201 58 36 0.9 3.5 0.00 0.00 0.00 86 1013.3
20260502210705 58 34 0.9 3.5 0.00 0.00 0.00 87 1013.3
20260502210201 58 22 0.9 3.5 0.00 0.00 0.00 87 1013.4
20260502205706 58 28 0.9 3.5 0.00 0.00 0.00 87 1013.6
20260502205202 58 29 0.9 2.6 0.00 0.00 0.00 87 1013.7
20260502204703 58 29 0.9 3.5 0.00 0.00 0.00 86 1013.7
20260502204202 58 30 1.7 4.3 0.00 0.00 0.00 86 1013.7
20260502203702 58 39 1.7 4.3 0.00 0.00 0.00 86 1013.8
20260502203459 58 23 0.9 4.3 0.00 0.00 0.00 86 1013.9
20260502203412 58 23 0.9 4.3 0.00 0.00 0.00 86 1013.9
20260502202701 58 38 1.7 4.3 0.00 0.00 0.00 85 1014.0
20260502202516 58 24 1.7 5.2 0.00 0.00 0.00 85 1014.1
20260502202412 58 24 1.7 5.2 0.00 0.00 0.00 85 1014.1
20260502201704 58 19 1.7 5.2 0.00 0.00 0.00 84 1014.0
20260502201203 58 13 1.7 5.2 0.00 0.00 0.00 83 1014.1
20260502200703 59 44 1.7 5.2 0.00 0.00 0.00 83 1014.3
20260502200459 59 32 2.6 5.2 0.00 0.00 0.00 82 1014.4
20260502200412 59 32 2.6 5.2 0.00 0.00 0.00 82 1014.4
20260502195705 60 26 2.6 7.0 0.00 0.00 0.00 80 1014.4
20260502195457 60 49 2.6 7.0 0.00 0.00 0.00 78 1014.4
20260502195410 60 49 2.6 7.0 0.00 0.00 0.00 78 1014.4
20260502194806 60 15 1.7 5.2 0.00 0.00 0.00 73 1014.4
20260502194740 60 40 2.6 7.0 0.00 0.00 0.00 76 1014.5
20260502194412 60 15 1.7 5.2 0.00 0.00 0.00 73 1014.4
20260502193702 60 0 1.7 4.3 0.00 0.00 0.00 70 1014.3
20260502193203 60 18 0.9 3.5 0.00 0.00 0.00 69 1014.4
20260502192702 61 355 0.9 2.6 0.00 0.00 0.00 68 1014.4
20260502192209 61 355 0.9 2.6 0.00 0.00 0.00 68 1014.4
20260502191704 61 355 1.7 4.3 0.00 0.00 0.00 67 1014.5
20260502191202 61 345 1.7 4.3 0.00 0.00 0.00 66 1014.4
20260502190704 61 355 0.9 3.5 0.00 0.00 0.00 66 1014.4
20260502190204 61 11 0.9 3.5 0.00 0.00 0.00 66 1014.4
20260502185703 62 11 0.9 3.5 0.00 0.00 0.00 65 1014.3
20260502185459 62 11 0.9 3.5 0.00 0.00 0.00 64 1014.4
20260502185412 62 11 0.9 3.5 0.00 0.00 0.00 64 1014.4
20260502184702 62 11 0.9 3.5 0.00 0.00 0.00 64 1014.3
20260502184205 62 13 1.7 3.5 0.00 0.00 0.00 64 1014.4
20260502183702 62 5 1.7 3.5 0.00 0.00 0.00 65 1014.3
20260502183459 62 355 1.7 5.2 0.00 0.00 0.00 65 1014.4
20260502183410 62 355 1.7 5.2 0.00 0.00 0.00 65 1014.4
20260502182703 63 338 1.7 7.0 0.00 0.00 0.00 64 1014.3
20260502182207 63 0 2.6 7.0 0.00 0.00 0.00 64 1014.3
20260502181702 63 10 1.7 7.0 0.00 0.00 0.00 64 1014.3
20260502181205 63 340 1.7 7.0 0.00 0.00 0.00 64 1014.3
20260502180701 64 350 2.6 7.0 0.00 0.00 0.00 64 1014.3
20260502180204 64 334 3.5 7.8 0.00 0.00 0.00 63 1014.4
20260502170205 67 324 4.3 8.7 0.00 0.00 0.00 60 1014.9
20260502163810 69 339 3.5 8.7 0.00 0.00 0.00 60 1015.1
20260502163743 69 5 3.5 9.6 0.00 0.00 0.00 59 1015.2
20260502163413 69 339 3.5 8.7 0.00 0.00 0.00 60 1015.1
20260502162702 70 15 3.5 9.6 0.00 0.00 0.00 59 1015.2
20260502162456 70 287 4.3 9.6 0.00 0.00 0.00 60 1015.2
20260502162411 70 287 4.3 9.6 0.00 0.00 0.00 60 1015.2
20260502161703 70 338 3.5 8.7 0.00 0.00 0.00 61 1015.2
20260502161203 70 297 4.3 8.7 0.00 0.00 0.00 61 1015.1
20260502160957 71 355 3.5 9.6 0.00 0.00 0.00 61 1015.2
20260502160910 71 355 3.5 9.6 0.00 0.00 0.00 61 1015.2
20260502160204 71 5 4.3 10.4 0.00 0.00 0.00 60 1015.1
20260502152016 74 342 1.7 8.7 0.00 0.00 0.00 55 1015.4
20260502151911 74 342 1.7 8.7 0.00 0.00 0.00 55 1015.4
20260502151204 74 296 1.7 6.1 0.00 0.00 0.00 56 1015.5
20260502151157 74 281 1.7 6.1 0.00 0.00 0.00 56 1015.5
20260502150705 74 138 1.7 7.0 0.00 0.00 0.00 58 1015.6
20260502150658 74 138 1.7 7.0 0.00 0.00 0.00 58 1015.6
20260502150206 74 161 1.7 7.0 0.00 0.00 0.00 57 1015.7
20260502150157 74 161 1.7 7.0 0.00 0.00 0.00 57 1015.7
20260502130205 72 175 2.6 7.0 0.00 0.00 0.00 64 1016.7
20260502130107 72 188 2.6 7.0 0.00 0.00 0.00 64 1016.8
20260502123702 72 184 3.5 12.2 0.00 0.00 0.00 66 1016.9
20260502123540 72 210 2.6 12.2 0.00 0.00 0.00 66 1017.0
20260502123203 71 276 2.6 11.3 0.00 0.00 0.00 67 1017.1
20260502123036 71 254 2.6 11.3 0.00 0.00 0.00 67 1017.0
20260502122704 71 148 2.6 8.7 0.00 0.00 0.00 67 1017.0
20260502122534 71 209 2.6 8.7 0.00 0.00 0.00 67 1017.1
20260502122203 70 158 2.6 8.7 0.00 0.00 0.00 67 1017.1
20260502122033 70 258 2.6 8.7 0.00 0.00 0.00 67 1017.1
20260502121703 71 253 2.6 8.7 0.00 0.00 0.00 67 1017.2
20260502121535 71 126 2.6 8.7 0.00 0.00 0.00 67 1017.2
20260502121203 71 117 2.6 11.3 0.00 0.00 0.00 66 1017.2
20260502121034 71 148 2.6 11.3 0.00 0.00 0.00 66 1017.2
20260502120831 71 141 2.6 11.3 0.00 0.00 0.00 65 1017.2
20260502120803 71 167 2.6 11.3 0.00 0.00 0.00 66 1017.2
20260502120419 73 202 2.6 9.6 0.00 0.00 0.00 63 1017.2
20260502120413 72 142 1.7 9.6 0.00 0.00 0.00 64 1017.1
20260502120336 72 187 2.6 9.6 0.00 0.00 0.00 65 1017.2
20260502115802 73 278 2.6 9.6 0.00 0.00 0.00 64 1017.1
20260502115202 73 250 1.7 7.0 0.00 0.00 0.00 63 1017.2
20260502115031 73 165 1.7 7.0 0.00 0.00 0.00 63 1017.2
20260502114703 73 159 1.7 7.0 0.00 0.00 0.00 63 1017.3
20260502114531 73 167 1.7 7.0 0.00 0.00 0.00 64 1017.2
20260502114323 72 90 2.6 7.8 0.00 0.00 0.00 64 1017.3
20260502114259 72 198 2.6 7.8 0.00 0.00 0.00 64 1017.3
20260502113703 72 132 2.6 7.8 0.00 0.00 0.00 63 1017.4
20260502113531 72 151 2.6 7.8 0.00 0.00 0.00 63 1017.4
20260502113202 72 151 3.5 8.7 0.00 0.00 0.00 64 1017.4
20260502113031 72 311 2.6 8.7 0.00 0.00 0.00 64 1017.4
20260502112704 72 182 2.6 8.7 0.00 0.00 0.00 64 1017.4
20260502112531 72 200 2.6 8.7 0.00 0.00 0.00 64 1017.3
20260502112202 72 254 2.6 8.7 0.00 0.00 0.00 64 1017.4
20260502112031 72 153 2.6 8.7 0.00 0.00 0.00 63 1017.4
20260502111704 72 244 2.6 8.7 0.00 0.00 0.00 64 1017.5
20260502111532 72 165 2.6 8.7 0.00 0.00 0.00 63 1017.4
20260502111202 72 117 2.6 7.8 0.00 0.00 0.00 63 1017.5
20260502111033 72 274 2.6 8.7 0.00 0.00 0.00 63 1017.5
20260502110701 72 153 2.6 8.7 0.00 0.00 0.00 63 1017.5
20260502110532 72 140 2.6 8.7 0.00 0.00 0.00 62 1017.5
20260502110203 72 247 2.6 8.7 0.00 0.00 0.00 63 1017.6
20260502110028 73 172 2.6 7.0 0.00 0.00 0.00 63 1017.6
20260502105704 72 173 2.6 8.7 0.00 0.00 0.00 64 1017.6
20260502105526 72 224 2.6 8.7 0.00 0.00 0.00 64 1017.7
20260502105205 71 141 2.6 8.7 0.00 0.00 0.00 64 1017.6
20260502105025 71 162 2.6 8.7 0.00 0.00 0.00 64 1017.6
20260502104702 71 153 2.6 7.8 0.00 0.00 0.00 66 1017.7
20260502104530 71 162 2.6 7.8 0.00 0.00 0.00 66 1017.7
20260502104203 71 157 2.6 8.7 0.00 0.00 0.00 65 1017.6
20260502104016 71 184 3.5 8.7 0.00 0.00 0.00 65 1017.7
20260502103703 71 240 2.6 11.3 0.00 0.00 0.00 65 1017.7
20260502103514 71 348 2.6 11.3 0.00 0.00 0.00 65 1017.7
20260502103305 71 252 2.6 11.3 0.00 0.00 0.00 65 1017.8
20260502103245 71 128 2.6 11.3 0.00 0.00 0.00 65 1017.8
20260502102703 70 164 2.6 7.0 0.00 0.00 0.00 65 1017.7
20260502102510 70 146 2.6 9.6 0.00 0.00 0.00 66 1017.7
20260502102204 70 135 3.5 9.6 0.00 0.00 0.00 66 1017.8
20260502102010 70 178 3.5 9.6 0.00 0.00 0.00 66 1017.8
20260502101703 69 163 3.5 9.6 0.00 0.00 0.00 66 1017.9
20260502101508 70 184 2.6 7.8 0.00 0.00 0.00 66 1017.9
20260502101203 70 190 2.6 7.0 0.00 0.00 0.00 66 1017.8
20260502101008 70 355 1.7 7.0 0.00 0.00 0.00 66 1017.9
20260502100802 69 158 1.7 7.0 0.00 0.00 0.00 65 1017.9
20260502100741 70 167 1.7 7.0 0.00 0.00 0.00 66 1017.9
20260502100205 69 277 1.7 6.1 0.00 0.00 0.00 65 1017.8
20260502091502 65 163 0.9 4.3 0.00 0.00 0.00 65 1018.0
20260502091202 65 160 0.9 2.6 0.00 0.00 0.00 67 1017.9
20260502091002 64 178 0.9 2.6 0.00 0.00 0.00 67 1017.9
20260502090702 64 140 0.0 3.5 0.00 0.00 0.00 67 1017.8
20260502090502 64 97 0.0 3.5 0.00 0.00 0.00 67 1017.8
20260502090201 63 96 0.0 3.5 0.00 0.00 0.00 67 1017.8
20260502071502 58 177 0.0 2.6 0.00 0.00 0.00 63 1018.0
20260502071202 58 178 0.9 2.6 0.00 0.00 0.00 63 1018.0
20260502071003 58 176 0.9 2.6 0.00 0.00 0.00 62 1018.0
20260502070704 58 177 0.0 2.6 0.00 0.00 0.00 63 1018.1
20260502070502 58 175 0.0 2.6 0.00 0.00 0.00 63 1018.1
20260502070202 58 175 0.9 3.5 0.00 0.00 0.00 63 1018.2
20260502070006 58 173 0.9 3.5 0.00 0.00 0.00 63 1018.2
20260502065702 57 173 0.9 6.1 0.00 0.00 0.00 63 1018.3
20260502065502 57 173 1.7 6.1 0.00 0.00 0.00 63 1018.2
20260502065203 57 179 1.7 6.1 0.00 0.00 0.00 63 1018.3
20260502065057 57 173 0.0 3.5 0.00 0.00 0.00 64 1018.2
20260502065040 57 163 0.9 6.1 0.00 0.00 0.00 63 1018.3
20260502064738 57 143 0.9 4.3 0.00 0.00 0.00 63 1018.3
20260502064258 57 173 0.9 3.5 0.00 0.00 0.00 63 1018.2
20260502064238 57 173 0.0 3.5 0.00 0.00 0.00 63 1018.1
20260502063702 57 169 0.9 4.3 0.00 0.00 0.00 64 1018.2
20260502063504 57 168 0.9 4.3 0.00 0.00 0.00 64 1018.1
20260502063203 57 169 0.9 4.3 0.00 0.00 0.00 64 1018.3
20260502063005 56 180 0.9 4.3 0.00 0.00 0.00 65 1018.3
20260502062703 56 134 0.9 4.3 0.00 0.00 0.00 65 1018.3
20260502062505 56 134 0.9 4.3 0.00 0.00 0.00 65 1018.2
20260502062201 56 169 0.9 4.3 0.00 0.00 0.00 66 1018.3
20260502062006 56 151 0.9 2.6 0.00 0.00 0.00 66 1018.2
20260502061504 56 143 0.9 4.3 0.00 0.00 0.00 66 1018.2
20260502061004 56 143 0.9 5.2 0.00 0.00 0.00 66 1018.2
20260502060801 56 109 1.7 5.2 0.00 0.00 0.00 67 1018.3
20260502060740 56 143 1.7 5.2 0.00 0.00 0.00 66 1018.3
20260502060203 56 148 1.7 6.1 0.00 0.00 0.00 67 1018.3
20260502060003 55 155 1.7 6.1 0.00 0.00 0.00 67 1018.3
20260502055702 55 153 1.7 6.1 0.00 0.00 0.00 67 1018.2
20260502055506 55 186 0.9 6.1 0.00 0.00 0.00 68 1018.2
20260502055259 54 140 0.0 2.6 0.00 0.00 0.00 69 1017.9
20260502055240 54 142 0.9 4.3 0.00 0.00 0.00 68 1018.0
20260502054702 54 136 0.0 1.7 0.00 0.00 0.00 69 1017.9
20260502054505 54 136 0.0 2.6 0.00 0.00 0.00 68 1017.9
20260502054203 53 137 0.0 2.6 0.00 0.00 0.00 69 1017.8
20260502054002 53 137 0.0 2.6 0.00 0.00 0.00 69 1017.9
20260502053703 53 137 0.9 2.6 0.00 0.00 0.00 69 1017.9
20260502053504 53 128 0.0 2.6 0.00 0.00 0.00 69 1017.9
20260502053259 52 128 0.9 2.6 0.00 0.00 0.00 69 1017.9
20260502053239 53 128 0.0 2.6 0.00 0.00 0.00 69 1017.9
20260502052702 52 127 0.9 4.3 0.00 0.00 0.00 69 1018.0
20260502052505 52 127 0.9 4.3 0.00 0.00 0.00 69 1018.0
20260502052202 52 134 0.9 4.3 0.00 0.00 0.00 69 1018.0
20260502052003 52 133 0.9 4.3 0.00 0.00 0.00 69 1018.0
20260502051702 52 155 0.9 3.5 0.00 0.00 0.00 69 1018.1
20260502051504 52 154 0.9 3.5 0.00 0.00 0.00 69 1018.1
20260502051257 51 148 0.9 4.3 0.00 0.00 0.00 69 1018.0
20260502051237 51 146 0.9 4.3 0.00 0.00 0.00 69 1018.0
20260502050703 51 146 0.9 4.3 0.00 0.00 0.00 69 1018.0
20260502050459 51 161 0.9 4.3 0.00 0.00 0.00 69 1018.1
20260502050202 51 150 0.9 2.6 0.00 0.00 0.00 69 1018.0
20260502045954 51 150 0.9 3.5 0.00 0.00 0.00 69 1018.0
20260502045703 51 153 0.9 4.3 0.00 0.00 0.00 68 1018.1
20260502045452 51 150 0.9 4.3 0.00 0.00 0.00 68 1018.1
20260502045202 51 145 0.9 4.3 0.00 0.00 0.00 68 1018.1
20260502044949 51 153 1.7 4.3 0.00 0.00 0.00 67 1018.1
20260502044702 51 158 1.7 5.2 0.00 0.00 0.00 67 1018.0
20260502044441 51 165 1.7 5.2 0.00 0.00 0.00 67 1018.1
20260502044323 51 157 0.9 4.3 0.00 0.00 0.00 67 1017.9
20260502044257 51 167 1.7 5.2 0.00 0.00 0.00 67 1018.1
20260502044011 51 165 1.7 5.2 0.00 0.00 0.00 67 1018.1
20260502043713 51 134 0.9 5.2 0.00 0.00 0.00 67 1018.0
20260502043203 51 158 0.9 4.3 0.00 0.00 0.00 67 1017.9
20260502042931 51 156 0.9 4.3 0.00 0.00 0.00 67 1017.8
20260502042704 51 147 0.0 2.6 0.00 0.00 0.00 67 1017.8
20260502042520 51 136 0.9 3.5 0.00 0.00 0.00 67 1017.9
20260502042504 51 144 0.0 2.6 0.00 0.00 0.00 67 1017.8
20260502042216 51 144 0.9 3.5 0.00 0.00 0.00 67 1017.8
20260502041702 51 136 0.9 3.5 0.00 0.00 0.00 67 1017.9
20260502041432 51 149 0.9 3.5 0.00 0.00 0.00 67 1017.8
20260502041202 51 154 0.0 3.5 0.00 0.00 0.00 67 1017.9
20260502040930 51 144 0.0 3.5 0.00 0.00 0.00 67 1017.9
20260502040703 51 142 0.0 3.5 0.00 0.00 0.00 67 1017.9
20260502040434 51 134 0.0 2.6 0.00 0.00 0.00 66 1017.9
20260502040203 51 133 0.0 2.6 0.00 0.00 0.00 66 1018.0
20260502035937 51 147 0.0 3.5 0.00 0.00 0.00 66 1018.1
20260502035723 52 150 0.9 3.5 0.00 0.00 0.00 66 1018.1
20260502035713 52 149 0.0 3.5 0.00 0.00 0.00 66 1018.0
20260502035202 52 158 0.9 3.5 0.00 0.00 0.00 66 1018.0
20260502034934 52 159 0.9 3.5 0.00 0.00 0.00 66 1018.1
20260502034704 52 159 0.9 3.5 0.00 0.00 0.00 66 1018.1
20260502034434 52 131 0.0 1.7 0.00 0.00 0.00 66 1018.1
20260502034204 52 131 0.0 2.6 0.00 0.00 0.00 66 1018.1
20260502033932 52 131 0.0 2.6 0.00 0.00 0.00 66 1018.1
20260502033703 52 131 0.0 3.5 0.00 0.00 0.00 66 1018.2
20260502033524 52 111 0.9 3.5 0.00 0.00 0.00 66 1018.2
20260502033505 52 140 0.9 3.5 0.00 0.00 0.00 66 1018.2
20260502033216 52 139 0.9 3.5 0.00 0.00 0.00 66 1018.2
20260502032703 52 147 0.9 3.5 0.00 0.00 0.00 66 1018.2
20260502032432 52 157 0.0 3.5 0.00 0.00 0.00 66 1018.3
20260502032202 52 158 0.0 3.5 0.00 0.00 0.00 66 1018.3
20260502031928 52 159 0.0 3.5 0.00 0.00 0.00 66 1018.3
20260502031703 52 158 0.0 3.5 0.00 0.00 0.00 66 1018.4
20260502031420 52 159 0.0 3.5 0.00 0.00 0.00 65 1018.4
20260502031203 52 159 0.9 3.5 0.00 0.00 0.00 65 1018.4
20260502030908 52 163 0.9 3.5 0.00 0.00 0.00 65 1018.4
20260502030702 52 163 0.9 2.6 0.00 0.00 0.00 65 1018.4
20260502030406 52 134 0.9 2.6 0.00 0.00 0.00 65 1018.4
20260502030201 52 144 0.9 2.6 0.00 0.00 0.00 65 1018.4
20260502025904 52 135 0.9 2.6 0.00 0.00 0.00 65 1018.5
20260502025705 52 137 0.9 2.6 0.00 0.00 0.00 65 1018.5
20260502025405 52 130 0.9 4.3 0.00 0.00 0.00 65 1018.5
20260502025201 52 130 0.9 4.3 0.00 0.00 0.00 65 1018.5
20260502024903 52 128 0.9 4.3 0.00 0.00 0.00 65 1018.6
20260502024703 52 129 0.9 4.3 0.00 0.00 0.00 65 1018.5
20260502024654 52 142 0.9 4.3 0.00 0.00 0.00 65 1018.6
20260502024203 52 148 0.9 3.5 0.00 0.00 0.00 64 1018.5
20260502024148 53 143 0.9 2.6 0.00 0.00 0.00 64 1018.5
20260502023702 53 142 0.9 2.6 0.00 0.00 0.00 64 1018.5
20260502023402 53 142 0.9 2.6 0.00 0.00 0.00 64 1018.5
20260502023206 53 142 0.9 2.6 0.00 0.00 0.00 64 1018.5
20260502022905 53 142 0.0 2.6 0.00 0.00 0.00 63 1018.6
20260502022702 53 142 0.0 1.7 0.00 0.00 0.00 63 1018.6
20260502022402 53 142 0.0 1.7 0.00 0.00 0.00 63 1018.6
20260502022202 53 140 0.0 1.7 0.00 0.00 0.00 63 1018.6
20260502021905 53 140 0.0 1.7 0.00 0.00 0.00 63 1018.6
20260502021702 53 140 0.0 1.7 0.00 0.00 0.00 63 1018.7